FW8901 Weather Reports


Display with metric or nautical units.
time (UTC)temp
F
wind
direction
speed
MPH
gust
MPH
rain 1hr
in
rain 24hr
in
rain mn
in
humidity
%
barometer
mb
20260506011047 74 0.0 0.0 0.00 0.00 0.00 40 1011.0
20260506010547 74 0.0 0.0 0.00 0.00 0.00 40 1010.9
20260506010059 74 0.0 0.0 0.00 0.00 0.00 40 1010.8
20260506005548 74 0.0 0.0 0.00 0.00 0.00 40 1010.8
20260506005049 74 0.0 0.0 0.00 0.00 0.00 40 1010.8
20260506004626 75 0.0 0.0 0.00 0.00 0.00 39 1010.7
20260506004048 75 0.0 0.0 0.00 0.00 0.00 38 1010.6
20260506003548 75 0.0 0.0 0.00 0.00 0.00 39 1010.6
20260506003057 75 0.0 0.0 0.00 0.00 0.00 39 1010.5
20260506002546 75 0.0 0.0 0.00 0.00 0.00 37 1010.5
20260506002052 76 0.0 0.0 0.00 0.00 0.00 38 1010.4
20260506001600 76 0.0 0.0 0.00 0.00 0.00 37 1010.4
20260506001047 76 0.0 0.0 0.00 0.00 0.00 37 1010.4
20260506000548 76 0.0 0.0 0.00 0.00 0.00 36 1010.3
20260506000058 76 0.0 0.0 0.00 0.00 0.00 35 1010.2
20260505235551 77 0.0 0.0 0.00 0.00 0.00 35 1010.2
20260505235048 77 0.0 0.0 0.00 0.00 0.00 35 1010.1
20260505234614 77 0.0 0.0 0.00 0.00 0.00 34 1010.0
20260505234049 78 0.0 0.0 0.00 0.00 0.00 34 1010.1
20260505233547 78 0.0 0.0 0.00 0.00 0.00 33 1010.0
20260505233057 78 0.0 0.0 0.00 0.00 0.00 33 1010.1
20260505232548 78 0.0 0.0 0.00 0.00 0.00 33 1010.1
20260505232056 79 0.0 0.0 0.00 0.00 0.00 31 1010.1
20260505231558 79 0.0 0.0 0.00 0.00 0.00 31 1010.1
20260505231049 79 0.0 0.0 0.00 0.00 0.00 30 1010.2
20260505230548 79 0.0 0.0 0.00 0.00 0.00 29 1010.2
20260505230058 79 0.0 0.0 0.00 0.00 0.00 29 1010.2
20260505225547 79 0.0 0.0 0.00 0.00 0.00 29 1010.1
20260505225104 79 0.0 0.0 0.00 0.00 0.00 28 1010.1
20260505224558 79 0.0 0.0 0.00 0.00 0.00 28 1010.2
20260505224048 80 0.0 0.0 0.00 0.00 0.00 27 1010.2
20260505223548 80 0.0 0.0 0.00 0.00 0.00 29 1010.1
20260505223104 80 0.0 0.0 0.00 0.00 0.00 30 1010.0
20260505222547 80 0.0 0.0 0.00 0.00 0.00 31 1010.0
20260505222057 80 0.0 0.0 0.00 0.00 0.00 30 1010.0
20260505221607 79 0.0 0.0 0.00 0.00 0.00 31 1010.0
20260505221048 80 0.0 0.0 0.00 0.00 0.00 30 1010.0
20260505220551 80 0.0 0.0 0.00 0.00 0.00 30 1010.1
20260505220138 80 0.0 0.0 0.00 0.00 0.00 28 1010.0
20260505215549 80 0.0 0.0 0.00 0.00 0.00 28 1010.1
20260505215048 79 0.0 0.0 0.00 0.00 0.00 28 1010.1
20260505214618 80 0.0 0.0 0.00 0.00 0.00 28 1010.1
20260505214046 80 0.0 0.0 0.00 0.00 0.00 27 1009.9
20260505213549 80 0.0 0.0 0.00 0.00 0.00 28 1010.0
20260505213053 80 0.0 0.0 0.00 0.00 0.00 27 1010.0
20260505212548 81 0.0 0.0 0.00 0.00 0.00 27 1009.8
20260505212051 81 0.0 0.0 0.00 0.00 0.00 27 1009.9
20260505211611 81 0.0 0.0 0.00 0.00 0.00 27 1009.8
20260505211047 81 0.0 0.0 0.00 0.00 0.00 27 1009.8
20260505210550 81 0.0 0.0 0.00 0.00 0.00 28 1009.8
20260505210052 81 0.0 0.0 0.00 0.00 0.00 28 1009.6
20260505205547 82 0.0 0.0 0.00 0.00 0.00 27 1009.8
20260505205048 82 0.0 0.0 0.00 0.00 0.00 27 1009.8
20260505204551 82 0.0 0.0 0.00 0.00 0.00 27 1009.8
20260505204046 82 0.0 0.0 0.00 0.00 0.00 29 1009.9
20260505203547 82 0.0 0.0 0.00 0.00 0.00 28 1009.7
20260505203055 83 0.0 0.0 0.00 0.00 0.00 30 1009.8
20260505202548 83 0.0 0.0 0.00 0.00 0.00 27 1009.8
20260505202050 83 0.0 0.0 0.00 0.00 0.00 28 1009.9
20260505201602 83 0.0 0.0 0.00 0.00 0.00 27 1009.8
20260505201047 84 0.0 0.0 0.00 0.00 0.00 27 1009.9
20260505200547 84 0.0 0.0 0.00 0.00 0.00 27 1009.8
20260505195550 83 0.0 0.0 0.00 0.00 0.00 28 1009.9
20260505195047 84 0.0 0.0 0.00 0.00 0.00 29 1009.9
20260505194603 83 0.0 0.0 0.00 0.00 0.00 29 1010.0
20260505194048 84 0.0 0.0 0.00 0.00 0.00 28 1009.9
20260505193547 84 0.0 0.0 0.00 0.00 0.00 29 1010.0
20260505193050 85 0.0 0.0 0.00 0.00 0.00 28 1010.0
20260505192547 86 0.0 0.0 0.00 0.00 0.00 28 1010.1
20260505192047 86 0.0 0.0 0.00 0.00 0.00 30 1010.1
20260505191553 85 0.0 0.0 0.00 0.00 0.00 28 1010.4
20260505191047 85 0.0 0.0 0.00 0.00 0.00 31 1010.3
20260505190548 85 0.0 0.0 0.00 0.00 0.00 27 1010.4
20260505185548 84 0.0 0.0 0.00 0.00 0.00 28 1010.8
20260505185048 84 0.0 0.0 0.00 0.00 0.00 28 1010.8
20260505184555 84 0.0 0.0 0.00 0.00 0.00 28 1010.9
20260505184048 84 0.0 0.0 0.00 0.00 0.00 28 1010.9
20260505183547 84 0.0 0.0 0.00 0.00 0.00 28 1011.1
20260505183056 84 0.0 0.0 0.00 0.00 0.00 29 1011.2
20260505182546 84 0.0 0.0 0.00 0.00 0.00 29 1011.1
20260505182100 84 0.0 0.0 0.00 0.00 0.00 29 1011.3
20260505181555 84 0.0 0.0 0.00 0.00 0.00 29 1011.3
20260505181052 84 0.0 0.0 0.00 0.00 0.00 28 1011.3
20260505180549 84 0.0 0.0 0.00 0.00 0.00 29 1011.4
20260505180052 82 0.0 0.0 0.00 0.00 0.00 30 1011.5
20260505175549 82 0.0 0.0 0.00 0.00 0.00 29 1011.5
20260505175048 82 0.0 0.0 0.00 0.00 0.00 30 1011.5
20260505174558 82 0.0 0.0 0.00 0.00 0.00 30 1011.6
20260505174047 84 0.0 0.0 0.00 0.00 0.00 29 1011.5
20260505173550 83 0.0 0.0 0.00 0.00 0.00 29 1011.5
20260505173056 83 0.0 0.0 0.00 0.00 0.00 29 1011.5
20260505172546 84 0.0 0.0 0.00 0.00 0.00 30 1011.6
20260505172048 81 0.0 0.0 0.00 0.00 0.00 35 1011.5
20260505171556 81 0.0 0.0 0.00 0.00 0.00 33 1011.6
20260505171102 82 0.0 0.0 0.00 0.00 0.00 33 1011.5
20260505170546 81 0.0 0.0 0.00 0.00 0.00 34 1011.7
20260505170056 82 0.0 0.0 0.00 0.00 0.00 34 1011.8
20260505165547 82 0.0 0.0 0.00 0.00 0.00 36 1011.9
20260505165051 81 0.0 0.0 0.00 0.00 0.00 37 1011.9
20260505164607 82 0.0 0.0 0.00 0.00 0.00 35 1011.9
20260505164056 81 0.0 0.0 0.00 0.00 0.00 36 1012.0
20260505163548 80 0.0 0.0 0.00 0.00 0.00 36 1012.1
20260505163053 80 0.0 0.0 0.00 0.00 0.00 38 1012.2
20260505162548 80 0.0 0.0 0.00 0.00 0.00 39 1012.4
20260505162048 80 0.0 0.0 0.00 0.00 0.00 37 1012.4
20260505161551 79 0.0 0.0 0.00 0.00 0.00 38 1012.6
20260505161047 78 0.0 0.0 0.00 0.00 0.00 38 1012.5
20260505160548 78 0.0 0.0 0.00 0.00 0.00 39 1012.6
20260505153053 77 0.0 0.0 0.00 0.00 0.00 43 1012.9
20260505152548 76 0.0 0.0 0.00 0.00 0.00 42 1013.0
20260505152046 77 0.0 0.0 0.00 0.00 0.00 43 1012.8
20260505151556 76 0.0 0.0 0.00 0.00 0.00 43 1012.8
20260505151047 76 0.0 0.0 0.00 0.00 0.00 44 1012.8
20260505150553 75 0.0 0.0 0.00 0.00 0.00 45 1012.9
20260505140547 69 0.0 0.0 0.00 0.00 0.00 52 1013.0
20260505140112 69 0.0 0.0 0.00 0.00 0.00 54 1012.9
20260505124559 62 0.0 0.0 0.00 0.00 0.00 61 1013.1
20260505124047 62 0.0 0.0 0.00 0.00 0.00 61 1013.0
20260505123547 61 0.0 0.0 0.00 0.00 0.00 61 1013.1
20260505123100 61 0.0 0.0 0.00 0.00 0.00 62 1013.2
20260505122547 61 0.0 0.0 0.00 0.00 0.00 62 1013.1
20260505122048 61 0.0 0.0 0.00 0.00 0.00 63 1012.9
20260505121554 61 0.0 0.0 0.00 0.00 0.00 63 1012.9
20260505121048 61 0.0 0.0 0.00 0.00 0.00 62 1012.7
20260505120548 60 0.0 0.0 0.00 0.00 0.00 63 1012.8
20260505120058 60 0.0 0.0 0.00 0.00 0.00 62 1013.0
20260505115552 60 0.0 0.0 0.00 0.00 0.00 63 1013.0
20260505115047 60 0.0 0.0 0.00 0.00 0.00 63 1013.0
20260505114609 60 0.0 0.0 0.00 0.00 0.00 63 1012.9
20260505114047 60 0.0 0.0 0.00 0.00 0.00 63 1012.7
20260505113547 60 0.0 0.0 0.00 0.00 0.00 63 1012.7
20260505113055 60 0.0 0.0 0.00 0.00 0.00 63 1012.6
20260505112550 60 0.0 0.0 0.00 0.00 0.00 63 1012.6
20260505112047 60 0.0 0.0 0.00 0.00 0.00 63 1012.6
20260505111557 60 0.0 0.0 0.00 0.00 0.00 63 1012.6
20260505111049 59 0.0 0.0 0.00 0.00 0.00 63 1012.4
20260505110546 59 0.0 0.0 0.00 0.00 0.00 62 1012.4
20260505110104 59 0.0 0.0 0.00 0.00 0.00 62 1012.3
20260505102047 59 0.0 0.0 0.00 0.00 0.00 61 1012.3
20260505101600 59 0.0 0.0 0.00 0.00 0.00 61 1012.1
20260505101048 59 0.0 0.0 0.00 0.00 0.00 61 1012.1
20260505100550 59 0.0 0.0 0.00 0.00 0.00 61 1012.0
20260505100056 59 0.0 0.0 0.00 0.00 0.00 61 1011.9
20260505095549 60 0.0 0.0 0.00 0.00 0.00 60 1011.9
20260505095046 60 0.0 0.0 0.00 0.00 0.00 61 1012.0
20260505094554 60 0.0 0.0 0.00 0.00 0.00 60 1011.9
20260505094052 60 0.0 0.0 0.00 0.00 0.00 60 1011.9
20260505093547 60 0.0 0.0 0.00 0.00 0.00 60 1011.8
20260505093053 60 0.0 0.0 0.00 0.00 0.00 60 1012.0
20260505092551 60 0.0 0.0 0.00 0.00 0.00 60 1011.9
20260505092048 60 0.0 0.0 0.00 0.00 0.00 60 1011.9
20260505091606 60 0.0 0.0 0.00 0.00 0.00 60 1011.9
20260505091051 60 0.0 0.0 0.00 0.00 0.00 60 1011.9
20260505090548 60 0.0 0.0 0.00 0.00 0.00 60 1011.8
20260505090054 60 0.0 0.0 0.00 0.00 0.00 60 1011.7
20260505085548 60 0.0 0.0 0.00 0.00 0.00 59 1011.7
20260505085047 60 0.0 0.0 0.00 0.00 0.00 59 1011.7
20260505084552 60 0.0 0.0 0.00 0.00 0.00 59 1011.7
20260505084047 60 0.0 0.0 0.00 0.00 0.00 59 1011.8
20260505083547 60 0.0 0.0 0.00 0.00 0.00 60 1011.7
20260505083053 60 0.0 0.0 0.00 0.00 0.00 59 1011.7
20260505082547 60 0.0 0.0 0.00 0.00 0.00 59 1011.8
20260505082047 60 0.0 0.0 0.00 0.00 0.00 59 1011.8
20260505081553 60 0.0 0.0 0.00 0.00 0.00 59 1011.7
20260505081046 60 0.0 0.0 0.00 0.00 0.00 60 1011.7
20260505080550 60 0.0 0.0 0.00 0.00 0.00 60 1011.7
20260505080100 60 0.0 0.0 0.00 0.00 0.00 59 1011.6
20260505075634 60 0.0 0.0 0.00 0.00 0.00 60 1011.6
20260505075048 61 0.0 0.0 0.00 0.00 0.00 60 1011.5
20260505074554 61 0.0 0.0 0.00 0.00 0.00 61 1011.5
20260505074048 61 0.0 0.0 0.00 0.00 0.00 61 1011.4
20260505073547 61 0.0 0.0 0.00 0.00 0.00 60 1011.4
20260505073103 61 0.0 0.0 0.00 0.00 0.00 60 1011.3
20260505072547 61 0.0 0.0 0.00 0.00 0.00 60 1011.4
20260505072046 61 0.0 0.0 0.00 0.00 0.00 60 1011.4
20260505071555 61 0.0 0.0 0.00 0.00 0.00 60 1011.3
20260505071047 61 0.0 0.0 0.00 0.00 0.00 61 1011.3
20260505070547 61 0.0 0.0 0.00 0.00 0.00 61 1011.4
20260505070055 61 0.0 0.0 0.00 0.00 0.00 62 1011.3
20260505065547 61 0.0 0.0 0.00 0.00 0.00 62 1011.2
20260505065046 60 0.0 0.0 0.00 0.00 0.00 62 1011.1
20260505064551 60 0.0 0.0 0.00 0.00 0.00 62 1011.2
20260505064048 60 0.0 0.0 0.00 0.00 0.00 63 1011.2
20260505063548 60 0.0 0.0 0.00 0.00 0.00 64 1011.1
20260505063110 60 0.0 0.0 0.00 0.00 0.00 65 1011.2
20260505062547 60 0.0 0.0 0.00 0.00 0.00 65 1011.2
20260505062047 60 0.0 0.0 0.00 0.00 0.00 65 1011.1
20260505061552 59 0.0 0.0 0.00 0.00 0.00 66 1011.1
20260505061051 59 0.0 0.0 0.00 0.00 0.00 67 1011.1
20260505060548 59 0.0 0.0 0.00 0.00 0.00 67 1011.0
20260505060059 59 0.0 0.0 0.00 0.00 0.00 67 1011.1
20260505055548 59 0.0 0.0 0.00 0.00 0.00 67 1011.0
20260505055047 59 0.0 0.0 0.00 0.00 0.00 68 1011.0
20260505054609 59 0.0 0.0 0.00 0.00 0.00 68 1011.1
20260505054047 59 0.0 0.0 0.00 0.00 0.00 67 1011.1
20260505053547 60 0.0 0.0 0.00 0.00 0.00 68 1011.0
20260505053059 60 0.0 0.0 0.00 0.00 0.00 68 1011.1
20260505052548 60 0.0 0.0 0.00 0.00 0.00 68 1011.1
20260505052048 60 0.0 0.0 0.00 0.00 0.00 67 1011.0
20260505051551 60 0.0 0.0 0.00 0.00 0.00 68 1011.1
20260505051047 60 0.0 0.0 0.00 0.00 0.00 68 1011.2
20260505050547 60 0.0 0.0 0.00 0.00 0.00 68 1011.1
20260505041558 61 0.0 0.0 0.00 0.00 0.00 64 1011.2
20260505041048 62 0.0 0.0 0.00 0.00 0.00 64 1011.1
20260505040549 62 0.0 0.0 0.00 0.00 0.00 64 1011.2
20260505040057 62 0.0 0.0 0.00 0.00 0.00 64 1011.1
20260505035547 62 0.0 0.0 0.00 0.00 0.00 63 1011.1
20260505035053 62 0.0 0.0 0.00 0.00 0.00 63 1011.1
20260505034556 63 0.0 0.0 0.00 0.00 0.00 63 1011.1
20260505034052 63 0.0 0.0 0.00 0.00 0.00 62 1011.2
20260505033550 63 0.0 0.0 0.00 0.00 0.00 61 1011.1
20260505033055 63 0.0 0.0 0.00 0.00 0.00 61 1011.2
20260505032548 63 0.0 0.0 0.00 0.00 0.00 61 1011.2
20260505032049 63 0.0 0.0 0.00 0.00 0.00 60 1011.2
20260505031603 63 0.0 0.0 0.00 0.00 0.00 60 1011.3
20260505031047 64 0.0 0.0 0.00 0.00 0.00 59 1011.3
20260505030547 64 0.0 0.0 0.00 0.00 0.00 59 1011.3
20260505030113 64 0.0 0.0 0.00 0.00 0.00 58 1011.4
20260505025547 64 0.0 0.0 0.00 0.00 0.00 58 1011.4
20260505025048 64 0.0 0.0 0.00 0.00 0.00 58 1011.3
20260505024605 65 0.0 0.0 0.00 0.00 0.00 58 1011.3
20260505024047 65 0.0 0.0 0.00 0.00 0.00 57 1011.4
20260505023546 65 0.0 0.0 0.00 0.00 0.00 56 1011.3
20260505023056 65 0.0 0.0 0.00 0.00 0.00 56 1011.2
20260505022547 65 0.0 0.0 0.00 0.00 0.00 56 1011.2
20260505022048 66 0.0 0.0 0.00 0.00 0.00 55 1011.2
20260505021558 66 0.0 0.0 0.00 0.00 0.00 54 1011.3
20260505021049 66 0.0 0.0 0.00 0.00 0.00 53 1011.3
20260505020548 66 0.0 0.0 0.00 0.00 0.00 53 1011.2
20260505020054 66 0.0 0.0 0.00 0.00 0.00 53 1011.2
20260505015550 67 0.0 0.0 0.00 0.00 0.00 52 1011.1
20260505015049 67 0.0 0.0 0.00 0.00 0.00 51 1011.1
20260505014607 67 0.0 0.0 0.00 0.00 0.00 51 1011.1
20260505014047 67 0.0 0.0 0.00 0.00 0.00 50 1011.0
20260505013548 68 0.0 0.0 0.00 0.00 0.00 49 1011.0
20260505013055 68 0.0 0.0 0.00 0.00 0.00 49 1011.1
20260505012547 68 0.0 0.0 0.00 0.00 0.00 49 1010.9
20260505012047 68 0.0 0.0 0.00 0.00 0.00 49 1011.0
20260505011604 68 0.0 0.0 0.00 0.00 0.00 47 1011.0